Location: Unspecified
(0.0000°N, 0.0000°E)
Time: 21:31:49
(UTC+00:00)

ATLAS 5 CENTAUR DEB - Visible Passes

Search period start: 06 March 2026 00:00
Search period end: 16 March 2026 00:00
Orbit: 7294 x 36414 km, 19.5° (Epoch: 14 February)

Date Brightness Start Highest point End Pass type
(mag) Time Alt. Az. Time Alt. Az. Time Alt. Az.
6 Mar ? 20:33:29 10° WSW 22:54:19 32° WSW 08:34:18 10° E visible
8 Mar ? 16:32:21 10° E 20:58:29 20° ENE 21:40:18 10° ENE visible
9 Mar ? 12:31:12 10° W 23:13:40 57° ENE 00:50:57 10° ENE visible
10 Mar ? 15:10:20 10° W 21:54:37 85° SSW 03:34:04 10° ENE visible
11 Mar ? 17:55:59 10° WSW 21:08:16 59° WSW 06:13:35 10° E daylight
12 Mar ? 21:13:02 10° WSW 23:07:09 23° WSW 02:26:19 10° W visible
14 Mar ? 10:12:31 10° WNW 20:07:09 34° E 22:17:25 10° ENE visible
